Zurück zum Katalog

UWE-2

AktivWissenschaftSSO
NORAD 35934·PAYLOAD·🇩🇪 Germany

Gestartet Sep 23, 2009 von Satish Dhawan Space Centre

Loading…

Nächste Überflüge (nächste 24 Stunden)

TLE

AktuellSource: Space-Track

Epoche: Sep 14, 2026, 11:13 UTC

1 35934U 09051D   26257.46797781  .00000470  00000-0  10745-3 0  9991
2 35934  98.3921 162.1309 0005589 339.7149  20.3828 14.60269126901889

Verfolge UWE-2 in Echtzeit mit AllMySat

Download on the App Store